DLH4JA EDDM-LROP

Flight info

Callsign DLH4JA
Flight time N/A
Altitude 39000
Route KIRDI3S KIRDI DCT BUWOQ DCT OBFEZ DCT STEIN DCT TEGRI DCT LAMIT DCT TOSVI
Aircraft A319/M-SDE3FGHIRWY/LB1

Departure

Time N/A
Airport Munich Airport (EDDM)

Arrival

Time 2026-05-07 17:05
Airport Bucharest Henri Coandă International Airport (LROP)
Time Latitude Longitude Altitude Speed Heading
2026-05-07 16:16 46.82568 19.03691 39015 ft 473 kts 115°
2026-05-07 16:16 46.80217 19.12667 39011 ft 473 kts 115°
2026-05-07 16:17 46.77885 19.21590 39024 ft 473 kts 115°
2026-05-07 16:17 46.75529 19.30570 39039 ft 473 kts 115°
2026-05-07 16:18 46.73170 19.39522 39047 ft 473 kts 115°
2026-05-07 16:18 46.70797 19.48470 39028 ft 473 kts 115°
2026-05-07 16:19 46.68417 19.57416 39042 ft 473 kts 115°
2026-05-07 16:19 46.66047 19.66275 39048 ft 472 kts 115°
2026-05-07 16:20 46.63662 19.75167 39050 ft 472 kts 115°
2026-05-07 16:20 46.61271 19.84070 39037 ft 471 kts 115°
2026-05-07 16:21 46.58872 19.92933 39046 ft 471 kts 115°
2026-05-07 16:21 46.56473 20.01786 39049 ft 470 kts 116°
2026-05-07 16:22 46.54081 20.10570 39048 ft 470 kts 116°
2026-05-07 16:22 46.51673 20.19393 39049 ft 470 kts 116°
2026-05-07 16:23 46.49262 20.28207 39045 ft 470 kts 116°
2026-05-07 16:23 46.46834 20.37004 39045 ft 469 kts 116°
2026-05-07 16:24 46.44399 20.45797 39042 ft 469 kts 116°
2026-05-07 16:24 46.41971 20.54573 39028 ft 469 kts 116°
2026-05-07 16:25 46.39533 20.63346 39039 ft 469 kts 116°
2026-05-07 16:25 46.37093 20.72104 39041 ft 469 kts 116°
2026-05-07 16:26 46.34645 20.80848 39039 ft 468 kts 116°
2026-05-07 16:26 46.32203 20.89524 39030 ft 468 kts 116°
2026-05-07 16:27 46.29744 20.98231 39041 ft 468 kts 116°
2026-05-07 16:27 46.27277 21.06941 39048 ft 467 kts 116°
2026-05-07 16:28 46.24068 21.14967 39053 ft 458 kts 130°
2026-05-07 16:28 46.20365 21.22461 39035 ft 459 kts 130°
2026-05-07 16:29 46.16665 21.29968 39044 ft 459 kts 130°
2026-05-07 16:29 46.12961 21.37466 39049 ft 459 kts 130°
2026-05-07 16:30 46.09249 21.44961 39047 ft 459 kts 130°
2026-05-07 16:30 46.05557 21.52403 39024 ft 459 kts 130°
2026-05-07 16:31 46.01837 21.59874 39036 ft 459 kts 130°
2026-05-07 16:31 45.98115 21.67315 39037 ft 458 kts 130°
2026-05-07 16:32 45.94390 21.74752 39036 ft 458 kts 130°
2026-05-07 16:32 45.90664 21.82175 39031 ft 458 kts 130°
2026-05-07 16:33 45.86935 21.89588 39034 ft 457 kts 130°
2026-05-07 16:33 45.83229 21.96927 39045 ft 457 kts 130°
2026-05-07 16:34 45.79496 22.04298 39043 ft 457 kts 130°
2026-05-07 16:34 45.75750 22.11682 39048 ft 457 kts 130°
2026-05-07 16:35 45.72008 22.19042 39058 ft 457 kts 130°
2026-05-07 16:35 45.68254 22.26393 39058 ft 457 kts 130°
2026-05-07 16:36 45.64498 22.33733 39067 ft 457 kts 130°
2026-05-07 16:36 45.60737 22.41068 39066 ft 457 kts 130°
2026-05-07 16:37 45.56977 22.48384 39064 ft 458 kts 130°
2026-05-07 16:37 45.53200 22.55704 39070 ft 458 kts 130°
2026-05-07 16:38 45.49423 22.63016 39074 ft 458 kts 130°
2026-05-07 16:38 45.45638 22.70326 39079 ft 458 kts 130°
2026-05-07 16:39 45.41869 22.77586 39072 ft 458 kts 130°
2026-05-07 16:39 45.38071 22.84865 39085 ft 458 kts 130°
2026-05-07 16:40 45.34273 22.92154 39085 ft 458 kts 130°
2026-05-07 16:40 45.30472 22.99425 39083 ft 458 kts 130°
2026-05-07 16:41 45.26669 23.06677 39079 ft 458 kts 130°
2026-05-07 16:41 45.22852 23.13912 39091 ft 458 kts 130°
2026-05-07 16:42 45.19031 23.21146 39086 ft 458 kts 130°
2026-05-07 16:42 45.15244 23.28319 39078 ft 458 kts 130°
2026-05-07 16:43 45.11522 23.35647 39080 ft 461 kts 123°
2026-05-07 16:43 45.09147 23.44129 39075 ft 468 kts 107°
2026-05-07 16:44 45.07483 23.53044 38760 ft 467 kts 108°
2026-05-07 16:44 45.06644 23.57474 38483 ft 467 kts 108°
2026-05-07 16:44 45.05800 23.61906 38173 ft 466 kts 108°
2026-05-07 16:44 45.04952 23.66339 37394 ft 468 kts 108°
2026-05-07 16:45 45.04101 23.70784 36591 ft 469 kts 108°
2026-05-07 16:45 45.03249 23.75252 35722 ft 472 kts 108°
2026-05-07 16:45 45.02388 23.79762 34804 ft 476 kts 109°
2026-05-07 16:45 45.01530 23.84241 33811 ft 481 kts 109°
2026-05-07 16:46 45.00649 23.88842 32713 ft 485 kts 108°
2026-05-07 16:46 44.99766 23.93449 31727 ft 486 kts 108°
2026-05-07 16:46 44.98876 23.98096 30693 ft 489 kts 108°
2026-05-07 16:46 44.97992 24.02693 30012 ft 483 kts 107°
2026-05-07 16:47 44.97553 24.04965 29602 ft 480 kts 107°
2026-05-07 16:47 44.96664 24.09549 28915 ft 472 kts 107°
2026-05-07 16:47 44.95829 24.13855 28237 ft 466 kts 107°
2026-05-07 16:47 44.94987 24.18177 27599 ft 459 kts 107°
2026-05-07 16:48 44.94143 24.22492 26938 ft 453 kts 107°
2026-05-07 16:48 44.93307 24.26750 26294 ft 447 kts 107°
2026-05-07 16:48 44.92480 24.30961 25671 ft 442 kts 107°
2026-05-07 16:48 44.91662 24.35126 25033 ft 437 kts 107°
2026-05-07 16:49 44.90853 24.39230 24443 ft 432 kts 107°
2026-05-07 16:49 44.90054 24.43278 23866 ft 426 kts 107°
2026-05-07 16:49 44.89260 24.47295 23251 ft 422 kts 107°
2026-05-07 16:49 44.88478 24.51242 22713 ft 415 kts 107°
2026-05-07 16:50 44.87701 24.55144 22197 ft 410 kts 107°
2026-05-07 16:50 44.86936 24.58983 21698 ft 406 kts 107°
2026-05-07 16:50 44.86173 24.62800 21209 ft 402 kts 107°
2026-05-07 16:50 44.85417 24.66578 20697 ft 399 kts 108°
2026-05-07 16:51 44.84666 24.70323 20185 ft 396 kts 107°
2026-05-07 16:51 44.83918 24.74051 19676 ft 394 kts 107°
2026-05-07 16:51 44.83186 24.77702 19163 ft 392 kts 107°
2026-05-07 16:51 44.82447 24.81392 18632 ft 390 kts 107°
2026-05-07 16:52 44.81712 24.85054 18080 ft 388 kts 107°
2026-05-07 16:52 44.80976 24.88708 17520 ft 385 kts 108°
2026-05-07 16:52 44.80248 24.92317 16996 ft 382 kts 108°
2026-05-07 16:52 44.79523 24.95897 16467 ft 378 kts 108°
2026-05-07 16:53 44.78803 24.99444 15953 ft 375 kts 108°
2026-05-07 16:53 44.78087 25.02966 15434 ft 372 kts 108°
2026-05-07 16:53 44.77381 25.06444 14924 ft 369 kts 108°
2026-05-07 16:53 44.76675 25.09903 14414 ft 366 kts 108°
2026-05-07 16:54 44.75974 25.13328 14082 ft 359 kts 108°
2026-05-07 16:54 44.75304 25.16634 13940 ft 346 kts 108°
2026-05-07 16:54 44.74727 25.19885 13656 ft 338 kts 105°
2026-05-07 16:54 44.74230 25.23047 13580 ft 325 kts 104°
2026-05-07 16:55 44.73662 25.26081 13086 ft 322 kts 115°
2026-05-07 16:55 44.72725 25.28954 12207 ft 334 kts 118°
2026-05-07 16:55 44.71717 25.31954 11708 ft 333 kts 118°
2026-05-07 16:55 44.70748 25.34834 11217 ft 328 kts 118°
2026-05-07 16:56 44.69790 25.37687 10969 ft 314 kts 118°
2026-05-07 16:56 44.68881 25.40399 10733 ft 301 kts 118°
2026-05-07 16:56 44.67115 25.45651 10114 ft 300 kts 118°
2026-05-07 16:57 44.66224 25.48294 9553 ft 299 kts 118°
2026-05-07 16:57 44.65328 25.50940 8841 ft 302 kts 118°
2026-05-07 16:57 44.64419 25.53616 8078 ft 306 kts 118°
2026-05-07 16:57 44.63496 25.56334 7328 ft 309 kts 118°
2026-05-07 16:58 44.62571 25.59062 6607 ft 311 kts 118°
2026-05-07 16:58 44.61639 25.61811 5854 ft 312 kts 118°
2026-05-07 16:58 44.60711 25.64555 5108 ft 311 kts 117°
2026-05-07 16:58 44.59784 25.67302 4355 ft 310 kts 117°
2026-05-07 16:59 44.58862 25.70033 3597 ft 308 kts 116°
2026-05-07 16:59 44.57945 25.72742 2871 ft 306 kts 116°
2026-05-07 16:59 44.57053 25.75369 2582 ft 288 kts 116°
2026-05-07 16:59 44.56229 25.77793 2500 ft 260 kts 116°
2026-05-07 17:00 44.55492 25.79957 2491 ft 233 kts 116°
2026-05-07 17:00 44.54843 25.81911 2492 ft 212 kts 112°
2026-05-07 17:00 44.54648 25.83927 2516 ft 211 kts 88°
2026-05-07 17:00 44.54781 25.85976 2516 ft 208 kts 84°
2026-05-07 17:01 44.54937 25.87907 2504 ft 197 kts 84°
2026-05-07 17:01 44.55087 25.89798 2463 ft 194 kts 84°
2026-05-07 17:01 44.55235 25.91695 2289 ft 192 kts 84°
2026-05-07 17:01 44.55377 25.93521 2119 ft 183 kts 85°
2026-05-07 17:02 44.55510 25.95233 1863 ft 174 kts 86°
2026-05-07 17:02 44.55635 25.96856 1681 ft 162 kts 86°
2026-05-07 17:02 44.55753 25.98385 1494 ft 154 kts 86°
2026-05-07 17:02 44.55864 25.99816 1320 ft 141 kts 86°
2026-05-07 17:03 44.55966 26.01140 1159 ft 134 kts 86°
2026-05-07 17:03 44.56063 26.02420 1015 ft 130 kts 85°
2026-05-07 17:03 44.56159 26.03670 868 ft 129 kts 84°
2026-05-07 17:03 44.56254 26.04908 716 ft 127 kts 84°
2026-05-07 17:04 44.56348 26.06135 566 ft 126 kts 83°
2026-05-07 17:04 44.56439 26.07357 413 ft 125 kts 84°
2026-05-07 17:04 44.56532 26.08550 315 ft 114 kts 83°
2026-05-07 17:04 44.56600 26.09456 314 ft 69 kts 84°
2026-05-07 17:05 44.56639 26.10031 318 ft 53 kts 84°
2026-05-07 17:05 44.56670 26.10426 318 ft 35 kts 83°
2026-05-07 17:05 44.56695 26.10712 318 ft 23 kts 80°
2026-05-07 17:05 44.56804 26.10755 318 ft 19 kts 350°
2026-05-07 17:06 44.56921 26.10737 318 ft 15 kts 354°
2026-05-07 17:06 44.57016 26.10676 318 ft 16 kts 311°
2026-05-07 17:06 44.57065 26.10532 317 ft 17 kts 281°
2026-05-07 17:06 44.57058 26.10360 317 ft 18 kts 263°
2026-05-07 17:07 44.57041 26.10178 317 ft 19 kts 263°
2026-05-07 17:07 44.57026 26.10003 316 ft 18 kts 263°
2026-05-07 17:07 44.57011 26.09823 316 ft 19 kts 264°
2026-05-07 17:07 44.56997 26.09632 316 ft 20 kts 264°
2026-05-07 17:08 44.56983 26.09431 316 ft 21 kts 264°
2026-05-07 17:08 44.56967 26.09220 315 ft 22 kts 264°
2026-05-07 17:08 44.56951 26.09001 315 ft 20 kts 264°
2026-05-07 17:08 44.56935 26.08803 315 ft 21 kts 263°
2026-05-07 17:09 44.56922 26.08633 314 ft 17 kts 265°
2026-05-07 17:09 44.56999 26.08539 315 ft 17 kts 358°
2026-05-07 17:09 44.57117 26.08522 317 ft 17 kts 353°
2026-05-07 17:09 44.57224 26.08487 318 ft 14 kts 308°
2026-05-07 17:10 44.57218 26.08345 318 ft 15 kts 257°
2026-05-07 17:10 44.57199 26.08192 318 ft 17 kts 263°
2026-05-07 17:10 44.57173 26.08057 316 ft 9 kts 195°
2026-05-07 17:10 44.57127 26.08060 317 ft 7 kts 172°
2026-05-07 17:11 44.57115 26.08062 317 ft 0 kts 174°